This is the latest recevied weather packets stored in our database for station/object OM6ABF-11. If no packets are shown the sender has not sent any weather packets the latest 10 day(s).
| Time | Temp. | Humidity | Pressure | Rain* | Wind** | Luminosity | Snow |
|---|---|---|---|---|---|---|---|
| 1777985070 | 25° C | 17% | 1011.7 hPa | - | - | - | - |
| 1777984172 | 25° C | 17% | 1011.8 hPa | - | - | - | - |
| 1777983273 | 25° C | 18% | 1012 hPa | - | - | - | - |
| 1777982374 | 25° C | 15% | 1012 hPa | - | - | - | - |
| 1777981474 | 25.56° C | 19% | 1012 hPa | - | - | - | - |
| 1777980576 | 24.44° C | 18% | 1012.3 hPa | - | - | - | - |
| 1777979676 | 24.44° C | 19% | 1012.6 hPa | - | - | - | - |
| 1777978776 | 23.33° C | 19% | 1012.8 hPa | - | - | - | - |
| 1777977877 | 23.33° C | 20% | 1012.6 hPa | - | - | - | - |
| 1777976978 | 23.33° C | 25% | 1012.6 hPa | - | - | - | - |
| 1777976078 | 24.44° C | 24% | 1013.1 hPa | - | - | - | - |
| 1777975179 | 22.22° C | 25% | 1013 hPa | - | - | - | - |
| 1777974280 | 22.78° C | 25% | 1013.1 hPa | - | - | - | - |
| 1777973381 | 22.78° C | 26% | 1013.3 hPa | - | - | - | - |
| 1777972483 | 22.22° C | 26% | 1013.1 hPa | - | - | - | - |
| 1777971585 | 21.67° C | 26% | 1013.4 hPa | - | - | - | - |
| 1777970686 | 22.22° C | 27% | 1013.4 hPa | - | - | - | - |
| 1777969789 | 22.22° C | 27% | 1013.7 hPa | - | - | - | - |
| 1777968889 | 22.22° C | 28% | 1013.8 hPa | - | - | - | - |
| 1777967990 | 22.22° C | 26% | 1014 hPa | - | - | - | - |
| 1777967091 | 22.22° C | 30% | 1014.2 hPa | - | - | - | - |
| 1777966190 | 21.67° C | 32% | 1014.3 hPa | - | - | - | - |
| 1777965289 | 18.89° C | 37% | 1014.6 hPa | - | - | - | - |
| 1777964390 | 18.89° C | 37% | 1014.7 hPa | - | - | - | - |
| 1777963490 | 16.67° C | 41% | 1015 hPa | - | - | - | - |
* Rain since midnight (hover to see other rain measurements)
** Current wind speed in m/s (hover to see current wind gust speed)